Datum;"Wasserstand in cm";"Stationsnummer: 5871600";"Stationsname: Babelsberg-Drewitz";"Gew?sser: Nuthe";"Fehlwerte: -777"
"03.04.2024 00:00";186
"03.04.2024 00:15";186
"03.04.2024 00:30";186
"03.04.2024 00:45";186
"03.04.2024 01:00";186
"03.04.2024 01:15";186
"03.04.2024 01:30";186
"03.04.2024 01:45";186
"03.04.2024 02:00";186
"03.04.2024 02:15";186
"03.04.2024 02:30";186
"03.04.2024 02:45";186
"03.04.2024 03:00";186
"03.04.2024 03:15";186
"03.04.2024 03:30";186
"03.04.2024 03:45";186
"03.04.2024 04:00";186
"03.04.2024 04:15";186
"03.04.2024 04:30";186
"03.04.2024 04:45";186
"03.04.2024 05:00";186
"03.04.2024 05:15";187
"03.04.2024 05:30";187
"03.04.2024 05:45";187
"03.04.2024 06:00";187
"03.04.2024 06:15";187
"03.04.2024 06:30";187
"03.04.2024 06:45";187
"03.04.2024 07:00";187
"03.04.2024 07:15";187
"03.04.2024 07:30";187
"03.04.2024 07:45";187
"03.04.2024 08:00";187
"03.04.2024 08:15";187
"03.04.2024 08:30";187
"03.04.2024 08:45";187
"03.04.2024 09:00";187
"03.04.2024 09:15";187
"03.04.2024 09:30";187
"03.04.2024 09:45";187
"03.04.2024 10:00";187
"03.04.2024 10:15";187
"03.04.2024 10:30";187
"03.04.2024 10:45";187
"03.04.2024 11:00";187
"03.04.2024 11:15";187
"03.04.2024 11:30";187
"03.04.2024 11:45";187
"03.04.2024 12:00";187
"03.04.2024 12:15";187
"03.04.2024 12:30";187
"03.04.2024 12:45";187
"03.04.2024 13:00";186
"03.04.2024 13:15";186
"03.04.2024 13:30";186
"03.04.2024 13:45";186
"03.04.2024 14:00";186
"03.04.2024 14:15";185
"03.04.2024 14:30";185
"03.04.2024 14:45";185
"03.04.2024 15:00";185
"03.04.2024 15:15";185
"03.04.2024 15:30";185
"03.04.2024 15:45";185
"03.04.2024 16:00";185
"03.04.2024 16:15";185
"03.04.2024 16:30";185
"03.04.2024 16:45";185
"03.04.2024 17:00";185
"03.04.2024 17:15";185
"03.04.2024 17:30";185
"03.04.2024 17:45";185
"03.04.2024 18:00";185
"03.04.2024 18:15";185
"03.04.2024 18:30";185
"03.04.2024 18:45";185
"03.04.2024 19:00";185
"03.04.2024 19:15";185
"03.04.2024 19:30";185
"03.04.2024 19:45";185
"03.04.2024 20:00";185
"03.04.2024 20:15";185
"03.04.2024 20:30";185
"03.04.2024 20:45";185
"03.04.2024 21:00";185
"03.04.2024 21:15";185
"03.04.2024 21:30";185
"03.04.2024 21:45";185
"03.04.2024 22:00";184
"03.04.2024 22:15";184
"03.04.2024 22:30";184
"03.04.2024 22:45";184
"03.04.2024 23:00";184
"03.04.2024 23:15";184
"03.04.2024 23:30";184
"03.04.2024 23:45";184
"04.04.2024 00:00";184
"04.04.2024 00:15";184
"04.04.2024 00:30";184
"04.04.2024 00:45";184
"04.04.2024 01:00";184
"04.04.2024 01:15";184
"04.04.2024 01:30";184
"04.04.2024 01:45";184
"04.04.2024 02:00";184
"04.04.2024 02:15";184
"04.04.2024 02:30";184
"04.04.2024 02:45";184
"04.04.2024 03:00";184
"04.04.2024 03:15";184
"04.04.2024 03:30";184
"04.04.2024 03:45";184
"04.04.2024 04:00";184
"04.04.2024 04:15";184
"04.04.2024 04:30";184
"04.04.2024 04:45";184
"04.04.2024 05:00";184
"04.04.2024 05:15";184
"04.04.2024 05:30";184
"04.04.2024 05:45";184
"04.04.2024 06:00";184
"04.04.2024 06:15";184
"04.04.2024 06:30";184
"04.04.2024 06:45";184
"04.04.2024 07:00";184
"04.04.2024 07:15";184
"04.04.2024 07:30";184
"04.04.2024 07:45";184
"04.04.2024 08:00";184
"04.04.2024 08:15";184
"04.04.2024 08:30";184
"04.04.2024 08:45";184
"04.04.2024 09:00";184
"04.04.2024 09:15";184
"04.04.2024 09:30";184
"04.04.2024 09:45";184
"04.04.2024 10:00";184
"04.04.2024 10:15";184
"04.04.2024 10:30";185
"04.04.2024 10:45";185
"04.04.2024 11:00";185
"04.04.2024 11:15";185
"04.04.2024 11:30";185
"04.04.2024 11:45";185
"04.04.2024 12:00";185
"04.04.2024 12:15";185
"04.04.2024 12:30";186
"04.04.2024 12:45";186
"04.04.2024 13:00";186
"04.04.2024 13:15";186
"04.04.2024 13:30";186
"04.04.2024 13:45";186
"04.04.2024 14:00";186
"04.04.2024 14:15";186
"04.04.2024 14:30";186
"04.04.2024 14:45";186
"04.04.2024 15:00";186
"04.04.2024 15:15";186
"04.04.2024 15:30";186
"04.04.2024 15:45";186
"04.04.2024 16:00";186
"04.04.2024 16:15";187
"04.04.2024 16:30";187
"04.04.2024 16:45";187
"04.04.2024 17:00";187
"04.04.2024 17:15";187
"04.04.2024 17:30";187
"04.04.2024 17:45";187
"04.04.2024 18:00";187
"04.04.2024 18:15";187
"04.04.2024 18:30";187
"04.04.2024 18:45";187
"04.04.2024 19:00";187
"04.04.2024 19:15";187
"04.04.2024 19:30";187
"04.04.2024 19:45";187
"04.04.2024 20:00";187
"04.04.2024 20:15";187
"04.04.2024 20:30";187
"04.04.2024 20:45";187
"04.04.2024 21:00";187
"04.04.2024 21:15";187
"04.04.2024 21:30";187
"04.04.2024 21:45";187
"04.04.2024 22:00";187
"04.04.2024 22:15";187
"04.04.2024 22:30";187
"04.04.2024 22:45";187
"04.04.2024 23:00";187
"04.04.2024 23:15";187
"04.04.2024 23:30";187
"04.04.2024 23:45";187
"05.04.2024 00:00";187
"05.04.2024 00:15";187
"05.04.2024 00:30";187
"05.04.2024 00:45";187
"05.04.2024 01:00";187
"05.04.2024 01:15";187
"05.04.2024 01:30";187
"05.04.2024 01:45";187
"05.04.2024 02:00";187
"05.04.2024 02:15";187
"05.04.2024 02:30";187
"05.04.2024 02:45";187
"05.04.2024 03:00";187
"05.04.2024 03:15";187
"05.04.2024 03:30";187
"05.04.2024 03:45";187
"05.04.2024 04:00";187
"05.04.2024 04:15";187
"05.04.2024 04:30";187
"05.04.2024 04:45";187
"05.04.2024 05:00";187
"05.04.2024 05:15";187
"05.04.2024 05:30";187
"05.04.2024 05:45";187
"05.04.2024 06:00";187
"05.04.2024 06:15";187
"05.04.2024 06:30";187
"05.04.2024 06:45";187
"05.04.2024 07:00";187
"05.04.2024 07:15";187
"05.04.2024 07:30";187
"05.04.2024 07:45";187
"05.04.2024 08:00";187
"05.04.2024 08:15";187
"05.04.2024 08:30";187
"05.04.2024 08:45";187
"05.04.2024 09:00";187
"05.04.2024 09:15";187
"05.04.2024 09:30";187
"05.04.2024 09:45";187
"05.04.2024 10:00";187
"05.04.2024 10:15";187
"05.04.2024 10:30";187
"05.04.2024 10:45";187
"05.04.2024 11:00";187
"05.04.2024 11:15";187
"05.04.2024 11:30";187
"05.04.2024 11:45";187
"05.04.2024 12:00";187
"05.04.2024 12:15";187
"05.04.2024 12:30";187
"05.04.2024 12:45";187
"05.04.2024 13:00";187
"05.04.2024 13:15";187
"05.04.2024 13:30";187
"05.04.2024 13:45";187
"05.04.2024 14:00";187
"05.04.2024 14:15";187
"05.04.2024 14:30";187
"05.04.2024 14:45";187
"05.04.2024 15:00";188
"05.04.2024 15:15";188
"05.04.2024 15:30";188
"05.04.2024 15:45";188
"05.04.2024 16:00";188
"05.04.2024 16:15";188
"05.04.2024 16:30";188
"05.04.2024 16:45";188
"05.04.2024 17:00";188
"05.04.2024 17:15";188
"05.04.2024 17:30";188
"05.04.2024 17:45";188
"05.04.2024 18:00";188
"05.04.2024 18:15";188
"05.04.2024 18:30";188
"05.04.2024 18:45";188
"05.04.2024 19:00";188
"05.04.2024 19:15";188
"05.04.2024 19:30";188
"05.04.2024 19:45";188
"05.04.2024 20:00";188
"05.04.2024 20:15";188
"05.04.2024 20:30";188
"05.04.2024 20:45";188
"05.04.2024 21:00";188
"05.04.2024 21:15";188
"05.04.2024 21:30";188
"05.04.2024 21:45";188
"05.04.2024 22:00";188
"05.04.2024 22:15";188
"05.04.2024 22:30";188
"05.04.2024 22:45";188
"05.04.2024 23:00";188
"05.04.2024 23:15";188
"05.04.2024 23:30";188
"05.04.2024 23:45";188
"06.04.2024 00:00";188
"06.04.2024 00:15";188
"06.04.2024 00:30";188
"06.04.2024 00:45";188
"06.04.2024 01:00";188
"06.04.2024 01:15";188
"06.04.2024 01:30";188
"06.04.2024 01:45";188
"06.04.2024 02:00";188
"06.04.2024 02:15";188
"06.04.2024 02:30";189
"06.04.2024 02:45";189
"06.04.2024 03:00";189
"06.04.2024 03:15";189
"06.04.2024 03:30";189
"06.04.2024 03:45";189
"06.04.2024 04:00";189
"06.04.2024 04:15";189
"06.04.2024 04:30";189
"06.04.2024 04:45";189
"06.04.2024 05:00";189
"06.04.2024 05:15";189
"06.04.2024 05:30";189
"06.04.2024 05:45";189
"06.04.2024 06:00";189
"06.04.2024 06:15";189
"06.04.2024 06:30";189
"06.04.2024 06:45";189
"06.04.2024 07:00";189
"06.04.2024 07:15";189
"06.04.2024 07:30";189
"06.04.2024 07:45";189
"06.04.2024 08:00";189
"06.04.2024 08:15";189
"06.04.2024 08:30";189
"06.04.2024 08:45";189
"06.04.2024 09:00";189
"06.04.2024 09:15";189
"06.04.2024 09:30";189
"06.04.2024 09:45";189
"06.04.2024 10:00";189
"06.04.2024 10:15";189
"06.04.2024 10:30";189
"06.04.2024 10:45";189
"06.04.2024 11:00";189
"06.04.2024 11:15";189
"06.04.2024 11:30";189
"06.04.2024 11:45";189
"06.04.2024 12:00";189
"06.04.2024 12:15";189
"06.04.2024 12:30";189
"06.04.2024 12:45";189
"06.04.2024 13:00";189
"06.04.2024 13:15";189
"06.04.2024 13:30";189
"06.04.2024 13:45";189
"06.04.2024 14:00";189
"06.04.2024 14:15";189
"06.04.2024 14:30";190
"06.04.2024 14:45";190
"06.04.2024 15:00";190
"06.04.2024 15:15";190
"06.04.2024 15:30";190
"06.04.2024 15:45";190
"06.04.2024 16:00";190
"06.04.2024 16:15";190
"06.04.2024 16:30";190
"06.04.2024 16:45";190
"06.04.2024 17:00";190
"06.04.2024 17:15";190
"06.04.2024 17:30";190
"06.04.2024 17:45";190
"06.04.2024 18:00";190
"06.04.2024 18:15";190
"06.04.2024 18:30";190
"06.04.2024 18:45";190
"06.04.2024 19:00";190
"06.04.2024 19:15";190
"06.04.2024 19:30";190
"06.04.2024 19:45";190
"06.04.2024 20:00";190
"06.04.2024 20:15";190
"06.04.2024 20:30";190
"06.04.2024 20:45";190
"06.04.2024 21:00";190
"06.04.2024 21:15";190
"06.04.2024 21:30";190
"06.04.2024 21:45";190
"06.04.2024 22:00";190
"06.04.2024 22:15";190
"06.04.2024 22:30";190
"06.04.2024 22:45";190
"06.04.2024 23:00";190
"06.04.2024 23:15";190
"06.04.2024 23:30";190
"06.04.2024 23:45";190
"07.04.2024 00:00";190
"07.04.2024 00:15";190
"07.04.2024 00:30";190
"07.04.2024 00:45";190
"07.04.2024 01:00";190
"07.04.2024 01:15";190
"07.04.2024 01:30";190
"07.04.2024 01:45";190
"07.04.2024 02:00";190
"07.04.2024 02:15";190
"07.04.2024 02:30";190
"07.04.2024 02:45";190
"07.04.2024 03:00";190
"07.04.2024 03:15";190
"07.04.2024 03:30";190
"07.04.2024 03:45";190
"07.04.2024 04:00";190
"07.04.2024 04:15";190
"07.04.2024 04:30";190
"07.04.2024 04:45";190
"07.04.2024 05:00";190
"07.04.2024 05:15";190
"07.04.2024 05:30";190
"07.04.2024 05:45";190
"07.04.2024 06:00";190
"07.04.2024 06:15";190
"07.04.2024 06:30";190
"07.04.2024 06:45";190
"07.04.2024 07:00";190
"07.04.2024 07:15";190
"07.04.2024 07:30";190
"07.04.2024 07:45";190
"07.04.2024 08:00";190
"07.04.2024 08:15";190
"07.04.2024 08:30";190
"07.04.2024 08:45";190
"07.04.2024 09:00";190
"07.04.2024 09:15";191
"07.04.2024 09:30";191
"07.04.2024 09:45";191
"07.04.2024 10:00";191
"07.04.2024 10:15";191
"07.04.2024 10:30";191
"07.04.2024 10:45";191
"07.04.2024 11:00";191
"07.04.2024 11:15";191
"07.04.2024 11:30";191
"07.04.2024 11:45";191
"07.04.2024 12:00";191
"07.04.2024 12:15";191
"07.04.2024 12:30";191
"07.04.2024 12:45";191
"07.04.2024 13:00";191
"07.04.2024 13:15";191
"07.04.2024 13:30";191
"07.04.2024 13:45";191
"07.04.2024 14:00";191
"07.04.2024 14:15";191
"07.04.2024 14:30";191
"07.04.2024 14:45";191
"07.04.2024 15:00";191
"07.04.2024 15:15";191
"07.04.2024 15:30";191
"07.04.2024 15:45";191
"07.04.2024 16:00";191
"07.04.2024 16:15";191
"07.04.2024 16:30";191
"07.04.2024 16:45";191
"07.04.2024 17:00";191
"07.04.2024 17:15";191
"07.04.2024 17:30";191
"07.04.2024 17:45";191
"07.04.2024 18:00";191
"07.04.2024 18:15";191
"07.04.2024 18:30";191
"07.04.2024 18:45";191
"07.04.2024 19:00";191
"07.04.2024 19:15";191
"07.04.2024 19:30";191
"07.04.2024 19:45";191
"07.04.2024 20:00";191
"07.04.2024 20:15";191
"07.04.2024 20:30";191
"07.04.2024 20:45";191
"07.04.2024 21:00";191
"07.04.2024 21:15";191
"07.04.2024 21:30";191
"07.04.2024 21:45";191
"07.04.2024 22:00";191
"07.04.2024 22:15";191
"07.04.2024 22:30";191
"07.04.2024 22:45";191
"07.04.2024 23:00";191
"07.04.2024 23:15";191
"07.04.2024 23:30";191
"07.04.2024 23:45";191
"08.04.2024 00:00";191
"08.04.2024 00:15";191
"08.04.2024 00:30";191
"08.04.2024 00:45";191
"08.04.2024 01:00";191
"08.04.2024 01:15";191
"08.04.2024 01:30";191
"08.04.2024 01:45";191
"08.04.2024 02:00";191
"08.04.2024 02:15";191
"08.04.2024 02:30";191
"08.04.2024 02:45";191
"08.04.2024 03:00";191
"08.04.2024 03:15";191
"08.04.2024 03:30";191
"08.04.2024 03:45";191
"08.04.2024 04:00";191
"08.04.2024 04:15";191
"08.04.2024 04:30";191
"08.04.2024 04:45";191
"08.04.2024 05:00";191
"08.04.2024 05:15";191
"08.04.2024 05:30";191
"08.04.2024 05:45";191
"08.04.2024 06:00";191
"08.04.2024 06:15";191
"08.04.2024 06:30";191
"08.04.2024 06:45";191
"08.04.2024 07:00";191
"08.04.2024 07:15";191
"08.04.2024 07:30";191
"08.04.2024 07:45";191
"08.04.2024 08:00";191
"08.04.2024 08:15";191
"08.04.2024 08:30";191
"08.04.2024 08:45";191
"08.04.2024 09:00";191
"08.04.2024 09:15";191
"08.04.2024 09:30";191
"08.04.2024 09:45";191
"08.04.2024 10:00";191
"08.04.2024 10:15";191
"08.04.2024 10:30";191
"08.04.2024 10:45";191
"08.04.2024 11:00";191
"08.04.2024 11:15";191
"08.04.2024 11:30";191
"08.04.2024 11:45";191
"08.04.2024 12:00";190
"08.04.2024 12:15";190
"08.04.2024 12:30";190
"08.04.2024 12:45";190
"08.04.2024 13:00";190
"08.04.2024 13:15";190
"08.04.2024 13:30";190
"08.04.2024 13:45";190
"08.04.2024 14:00";190
"08.04.2024 14:15";190
"08.04.2024 14:30";190
"08.04.2024 14:45";190
"08.04.2024 15:00";190
"08.04.2024 15:15";190
"08.04.2024 15:30";190
"08.04.2024 15:45";190
"08.04.2024 16:00";190
"08.04.2024 16:15";190
"08.04.2024 16:30";190
"08.04.2024 16:45";190
"08.04.2024 17:00";190
"08.04.2024 17:15";190
"08.04.2024 17:30";190
"08.04.2024 17:45";190
"08.04.2024 18:00";190
"08.04.2024 18:15";190
"08.04.2024 18:30";190
"08.04.2024 18:45";190
"08.04.2024 19:00";190
"08.04.2024 19:15";190
"08.04.2024 19:30";190
"08.04.2024 19:45";190
"08.04.2024 20:00";190
"08.04.2024 20:15";190
"08.04.2024 20:30";190
"08.04.2024 20:45";190
"08.04.2024 21:00";190
"08.04.2024 21:15";190
"08.04.2024 21:30";190
"08.04.2024 21:45";190
"08.04.2024 22:00";190
"08.04.2024 22:15";190
"08.04.2024 22:30";190
"08.04.2024 22:45";190
"08.04.2024 23:00";190
"08.04.2024 23:15";190
"08.04.2024 23:30";190
"08.04.2024 23:45";190
"09.04.2024 00:00";190
"09.04.2024 00:15";190
"09.04.2024 00:30";190
"09.04.2024 00:45";190
"09.04.2024 01:00";190
"09.04.2024 01:15";190
"09.04.2024 01:30";190
"09.04.2024 01:45";190
"09.04.2024 02:00";190
"09.04.2024 02:15";190
"09.04.2024 02:30";190
"09.04.2024 02:45";190
"09.04.2024 03:00";190
"09.04.2024 03:15";190
"09.04.2024 03:30";190
"09.04.2024 03:45";190
"09.04.2024 04:00";190
"09.04.2024 04:15";190
"09.04.2024 04:30";190
"09.04.2024 04:45";190
"09.04.2024 05:00";190
"09.04.2024 05:15";190
"09.04.2024 05:30";190
"09.04.2024 05:45";190
"09.04.2024 06:00";190
"09.04.2024 06:15";190
"09.04.2024 06:30";190
"09.04.2024 06:45";190
"09.04.2024 07:00";190
"09.04.2024 07:15";190
"09.04.2024 07:30";190
"09.04.2024 07:45";190
"09.04.2024 08:00";190
"09.04.2024 08:15";190
"09.04.2024 08:30";190
"09.04.2024 08:45";190
"09.04.2024 09:00";190
"09.04.2024 09:15";190
"09.04.2024 09:30";190
"09.04.2024 09:45";190
"09.04.2024 10:00";190
"09.04.2024 10:15";190
"09.04.2024 10:30";190
"09.04.2024 10:45";190
"09.04.2024 11:00";190
"09.04.2024 11:15";190
"09.04.2024 11:30";190
"09.04.2024 11:45";190
"09.04.2024 12:00";190
"09.04.2024 12:15";190
"09.04.2024 12:30";190
"09.04.2024 12:45";190
"09.04.2024 13:00";190
"09.04.2024 13:15";190
"09.04.2024 13:30";189
"09.04.2024 13:45";189
"09.04.2024 14:00";189
"09.04.2024 14:15";188
"09.04.2024 14:30";188
"09.04.2024 14:45";187
"09.04.2024 15:00";187
"09.04.2024 15:15";187
"09.04.2024 15:30";186
"09.04.2024 15:45";186
"09.04.2024 16:00";186
"09.04.2024 16:15";186
"09.04.2024 16:30";185
"09.04.2024 16:45";185
"09.04.2024 17:00";185
"09.04.2024 17:15";185
"09.04.2024 17:30";185
"09.04.2024 17:45";184
"09.04.2024 18:00";184
"09.04.2024 18:15";184
"09.04.2024 18:30";184
"09.04.2024 18:45";184
"09.04.2024 19:00";184
"09.04.2024 19:15";184
"09.04.2024 19:30";184
"09.04.2024 19:45";183
"09.04.2024 20:00";183
"09.04.2024 20:15";183
"09.04.2024 20:30";183
"09.04.2024 20:45";183
"09.04.2024 21:00";183
"09.04.2024 21:15";183
"09.04.2024 21:30";183
"09.04.2024 21:45";183
"09.04.2024 22:00";183
"09.04.2024 22:15";183
"09.04.2024 22:30";183
"09.04.2024 22:45";183
"09.04.2024 23:00";182
"09.04.2024 23:15";182
"09.04.2024 23:30";182
"09.04.2024 23:45";182
"10.04.2024 00:00";182
"10.04.2024 00:15";182
"10.04.2024 00:30";182
"10.04.2024 00:45";182
"10.04.2024 01:00";182
"10.04.2024 01:15";182
"10.04.2024 01:30";182
"10.04.2024 01:45";182
"10.04.2024 02:00";182
"10.04.2024 02:15";182
"10.04.2024 02:30";182
"10.04.2024 02:45";182
"10.04.2024 03:00";182
"10.04.2024 03:15";182
"10.04.2024 03:30";182
"10.04.2024 03:45";182
"10.04.2024 04:00";182
"10.04.2024 04:15";182
"10.04.2024 04:30";182
"10.04.2024 04:45";182
"10.04.2024 05:00";182
"10.04.2024 05:15";182
"10.04.2024 05:30";182
"10.04.2024 05:45";182
"10.04.2024 06:00";182
"10.04.2024 06:15";183
"10.04.2024 06:30";183
"10.04.2024 06:45";183
"10.04.2024 07:00";183
"10.04.2024 07:15";183
"10.04.2024 07:30";183
"10.04.2024 07:45";183
"10.04.2024 08:00";184
"10.04.2024 08:15";184
"10.04.2024 08:30";184
"10.04.2024 08:45";184
"10.04.2024 09:00";184
"10.04.2024 09:15";184
"10.04.2024 09:30";184
"10.04.2024 09:45";184
"10.04.2024 10:00";184
"10.04.2024 10:15";184
"10.04.2024 10:30";184
"10.04.2024 10:45";184
"10.04.2024 11:00";184
"10.04.2024 11:15";184
"10.04.2024 11:30";184
"10.04.2024 11:45";184
"10.04.2024 12:00";184
"10.04.2024 12:15";184
"10.04.2024 12:30";184
"10.04.2024 12:45";184
"10.04.2024 13:00";184
"10.04.2024 13:15";184
"10.04.2024 13:30";184
"10.04.2024 13:45";184
"10.04.2024 14:00";184
"10.04.2024 14:15";184
"10.04.2024 14:30";184
"10.04.2024 14:45";184
"10.04.2024 15:00";184
"10.04.2024 15:15";184
"10.04.2024 15:30";184
"10.04.2024 15:45";184
"10.04.2024 16:00";184
"10.04.2024 16:15";184
"10.04.2024 16:30";184
"10.04.2024 16:45";184
"10.04.2024 17:00";184
"10.04.2024 17:15";184
"10.04.2024 17:30";184
"10.04.2024 17:45";184
"10.04.2024 18:00";184
"10.04.2024 18:15";184
"10.04.2024 18:30";184
"10.04.2024 18:45";184
"10.04.2024 19:00";184
"10.04.2024 19:15";184
"10.04.2024 19:30";184
"10.04.2024 19:45";184
"10.04.2024 20:00";184
"10.04.2024 20:15";184
"10.04.2024 20:30";184
"10.04.2024 20:45";184
"10.04.2024 21:00";184
"10.04.2024 21:15";184
"10.04.2024 21:30";184
"10.04.2024 21:45";184
"10.04.2024 22:00";184
"10.04.2024 22:15";184
"10.04.2024 22:30";184
"10.04.2024 22:45";184
"10.04.2024 23:00";184
"10.04.2024 23:15";184
"10.04.2024 23:30";184
"10.04.2024 23:45";183
"11.04.2024 00:00";183
"11.04.2024 00:15";183
"11.04.2024 00:30";183
"11.04.2024 00:45";183
"11.04.2024 01:00";183
"11.04.2024 01:15";183
"11.04.2024 01:30";183
"11.04.2024 01:45";183
"11.04.2024 02:00";183
"11.04.2024 02:15";183
"11.04.2024 02:30";183
"11.04.2024 02:45";183
"11.04.2024 03:00";183
"11.04.2024 03:15";183
"11.04.2024 03:30";183
"11.04.2024 03:45";183
"11.04.2024 04:00";183
"11.04.2024 04:15";183
"11.04.2024 04:30";183
"11.04.2024 04:45";183
"11.04.2024 05:00";183
"11.04.2024 05:15";183
"11.04.2024 05:30";183
"11.04.2024 05:45";183
"11.04.2024 06:00";183
"11.04.2024 06:15";183
"11.04.2024 06:30";183
"11.04.2024 06:45";183
"11.04.2024 07:00";183
"11.04.2024 07:15";183
"11.04.2024 07:30";183
"11.04.2024 07:45";183
"11.04.2024 08:00";183
"11.04.2024 08:15";183
"11.04.2024 08:30";183
"11.04.2024 08:45";183
"11.04.2024 09:00";183
"11.04.2024 09:15";183
"11.04.2024 09:30";183
"11.04.2024 09:45";183
"11.04.2024 10:00";183
"11.04.2024 10:15";183
"11.04.2024 10:30";183
"11.04.2024 10:45";183
"11.04.2024 11:00";183
"11.04.2024 11:15";183
"11.04.2024 11:30";183
"11.04.2024 11:45";183
"11.04.2024 12:00";183
"11.04.2024 12:15";183
"11.04.2024 12:30";183
"11.04.2024 12:45";183
"11.04.2024 13:00";184
"11.04.2024 13:15";184
"11.04.2024 13:30";184
"11.04.2024 13:45";185
"11.04.2024 14:00";185
"11.04.2024 14:15";185
"11.04.2024 14:30";186
"11.04.2024 14:45";186
"11.04.2024 15:00";186
"11.04.2024 15:15";186
"11.04.2024 15:30";186
"11.04.2024 15:45";187
"11.04.2024 16:00";187
"11.04.2024 16:15";187
"11.04.2024 16:30";187
"11.04.2024 16:45";187
"11.04.2024 17:00";187
"11.04.2024 17:15";187
"11.04.2024 17:30";187
"11.04.2024 17:45";187
"11.04.2024 18:00";187
"11.04.2024 18:15";187
"11.04.2024 18:30";187
"11.04.2024 18:45";187
"11.04.2024 19:00";187
"11.04.2024 19:15";187
"11.04.2024 19:30";187
"11.04.2024 19:45";187
"11.04.2024 20:00";187
"11.04.2024 20:15";187
"11.04.2024 20:30";187
"11.04.2024 20:45";187
"11.04.2024 21:00";187
"11.04.2024 21:15";187
"11.04.2024 21:30";187
"11.04.2024 21:45";187
"11.04.2024 22:00";187
"11.04.2024 22:15";186
"11.04.2024 22:30";186
"11.04.2024 22:45";186
"11.04.2024 23:00";186
"11.04.2024 23:15";186
"11.04.2024 23:30";186
"11.04.2024 23:45";186
"12.04.2024 00:00";186
"12.04.2024 00:15";186
"12.04.2024 00:30";186
"12.04.2024 00:45";186
"12.04.2024 01:00";186
"12.04.2024 01:15";186
"12.04.2024 01:30";186
"12.04.2024 01:45";186
"12.04.2024 02:00";185
"12.04.2024 02:15";185
"12.04.2024 02:30";185
"12.04.2024 02:45";185
"12.04.2024 03:00";185
"12.04.2024 03:15";185
"12.04.2024 03:30";185
"12.04.2024 03:45";185
"12.04.2024 04:00";185
"12.04.2024 04:15";185
"12.04.2024 04:30";185
"12.04.2024 04:45";185
"12.04.2024 05:00";185
"12.04.2024 05:15";185
"12.04.2024 05:30";184
"12.04.2024 05:45";184
"12.04.2024 06:00";184
"12.04.2024 06:15";184
"12.04.2024 06:30";184
"12.04.2024 06:45";184
"12.04.2024 07:00";184
"12.04.2024 07:15";184
"12.04.2024 07:30";184
"12.04.2024 07:45";184
"12.04.2024 08:00";184
"12.04.2024 08:15";184
"12.04.2024 08:30";184
"12.04.2024 08:45";184
"12.04.2024 09:00";184
"12.04.2024 09:15";184
"12.04.2024 09:30";183
"12.04.2024 09:45";183
"12.04.2024 10:00";183
"12.04.2024 10:15";183
"12.04.2024 10:30";183
"12.04.2024 10:45";183
"12.04.2024 11:00";183
"12.04.2024 11:15";183
"12.04.2024 11:30";183
"12.04.2024 11:45";183
"12.04.2024 12:00";183
"12.04.2024 12:15";183
"12.04.2024 12:30";183
"12.04.2024 12:45";183
"12.04.2024 13:00";183
"12.04.2024 13:15";183
"12.04.2024 13:30";183
"12.04.2024 13:45";183
"12.04.2024 14:00";183
"12.04.2024 14:15";183
"12.04.2024 14:30";182
"12.04.2024 14:45";182
"12.04.2024 15:00";182
"12.04.2024 15:15";182
"12.04.2024 15:30";182
"12.04.2024 15:45";182
"12.04.2024 16:00";182
"12.04.2024 16:15";182
"12.04.2024 16:30";182
"12.04.2024 16:45";182
"12.04.2024 17:00";182
"12.04.2024 17:15";182
"12.04.2024 17:30";182
"12.04.2024 17:45";182
"12.04.2024 18:00";182
"12.04.2024 18:15";181
"12.04.2024 18:30";181
"12.04.2024 18:45";181
"12.04.2024 19:00";181
"12.04.2024 19:15";181
"12.04.2024 19:30";181
"12.04.2024 19:45";181
"12.04.2024 20:00";181
"12.04.2024 20:15";181
"12.04.2024 20:30";181
"12.04.2024 20:45";180
"12.04.2024 21:00";180
"12.04.2024 21:15";180
"12.04.2024 21:30";180
"12.04.2024 21:45";180
"12.04.2024 22:00";180
"12.04.2024 22:15";180
"12.04.2024 22:30";180
"12.04.2024 22:45";180
"12.04.2024 23:00";180
"12.04.2024 23:15";180
"12.04.2024 23:30";180
"12.04.2024 23:45";180
"13.04.2024 00:00";180
"13.04.2024 00:15";180
"13.04.2024 00:30";180
"13.04.2024 00:45";180
"13.04.2024 01:00";180
"13.04.2024 01:15";180
"13.04.2024 01:30";180
"13.04.2024 01:45";179
"13.04.2024 02:00";179
"13.04.2024 02:15";179
"13.04.2024 02:30";179
"13.04.2024 02:45";179
"13.04.2024 03:00";179
"13.04.2024 03:15";179
"13.04.2024 03:30";179
"13.04.2024 03:45";179
"13.04.2024 04:00";179
"13.04.2024 04:15";179
"13.04.2024 04:30";179
"13.04.2024 04:45";179
"13.04.2024 05:00";179
"13.04.2024 05:15";179
"13.04.2024 05:30";178
"13.04.2024 05:45";178
"13.04.2024 06:00";178
"13.04.2024 06:15";178
"13.04.2024 06:30";178
"13.04.2024 06:45";178
"13.04.2024 07:00";178
"13.04.2024 07:15";178
"13.04.2024 07:30";178
"13.04.2024 07:45";178
"13.04.2024 08:00";178
"13.04.2024 08:15";178
"13.04.2024 08:30";178
"13.04.2024 08:45";178
"13.04.2024 09:00";178
"13.04.2024 09:15";178
"13.04.2024 09:30";178
"13.04.2024 09:45";178
"13.04.2024 10:00";178
"13.04.2024 10:15";178
"13.04.2024 10:30";178
"13.04.2024 10:45";178
"13.04.2024 11:00";178
"13.04.2024 11:15";178
"13.04.2024 11:30";178
"13.04.2024 11:45";178
"13.04.2024 12:00";178
"13.04.2024 12:15";178
"13.04.2024 12:30";178
"13.04.2024 12:45";178
"13.04.2024 13:00";178
"13.04.2024 13:15";178
"13.04.2024 13:30";178
"13.04.2024 13:45";178
"13.04.2024 14:00";178
"13.04.2024 14:15";178
"13.04.2024 14:30";178
"13.04.2024 14:45";178
"13.04.2024 15:00";178
"13.04.2024 15:15";178
"13.04.2024 15:30";178
"13.04.2024 15:45";178
"13.04.2024 16:00";178
"13.04.2024 16:15";178
"13.04.2024 16:30";178
"13.04.2024 16:45";178
"13.04.2024 17:00";178
"13.04.2024 17:15";178
"13.04.2024 17:30";178
"13.04.2024 17:45";178
"13.04.2024 18:00";178
"13.04.2024 18:15";178
"13.04.2024 18:30";178
"13.04.2024 18:45";178
"13.04.2024 19:00";178
"13.04.2024 19:15";177